EWG4H EDDH-LOWW

Flight info

Callsign EWG4H
Flight time 1h 14m
Altitude 37000
Route AMLUH2G AMLUH M852 DENIX DCT ZUCKA DCT OMELO DCT EVIKU DCT BITSI DCT MIKOV MIKOV8W
Aircraft A21N/M-SDE2E3FGHIRWXY/LB1

Departure

Time 2026-04-22 19:23
Airport Hamburg Helmut Schmidt Airport (EDDH)

Arrival

Time 2026-04-22 20:38
Airport Vienna International Airport (LOWW)
Time Latitude Longitude Altitude Speed Heading
2026-04-22 18:47 53.62808 10.00243 0 ft 0 kts 63°
2026-04-22 19:03 53.62804 10.00230 54 ft 4 kts 61°
2026-04-22 19:03 53.62790 10.00193 47 ft 4 kts 49°
2026-04-22 19:04 53.62770 10.00164 52 ft 4 kts 25°
2026-04-22 19:04 53.62747 10.00157 51 ft 4 kts 339°
2026-04-22 19:04 53.62739 10.00163 51 ft 0 kts 333°
2026-04-22 19:07 53.62741 10.00162 54 ft 1 kts 333°
2026-04-22 19:08 53.62758 10.00147 52 ft 4 kts 333°
2026-04-22 19:08 53.62792 10.00117 54 ft 7 kts 333°
2026-04-22 19:08 53.62844 10.00072 54 ft 8 kts 332°
2026-04-22 19:08 53.62855 10.00060 54 ft 2 kts 324°
2026-04-22 19:09 53.62859 10.00055 54 ft 0 kts 320°
2026-04-22 19:10 53.62856 10.00059 54 ft 1 kts 320°
2026-04-22 19:10 53.62851 10.00067 54 ft 1 kts 322°
2026-04-22 19:10 53.62843 10.00078 54 ft 1 kts 324°
2026-04-22 19:10 53.62842 10.00079 54 ft 0 kts 325°
2026-04-22 19:11 53.62836 10.00086 54 ft 2 kts 325°
2026-04-22 19:11 53.62821 10.00104 54 ft 3 kts 325°
2026-04-22 19:12 53.62814 10.00112 54 ft 0 kts 324°
2026-04-22 19:13 53.62807 10.00120 54 ft 2 kts 324°
2026-04-22 19:13 53.62792 10.00139 52 ft 4 kts 324°
2026-04-22 19:13 53.62782 10.00151 54 ft 0 kts 324°
2026-04-22 19:14 53.62782 10.00150 54 ft 0 kts 324°
2026-04-22 19:16 53.62783 10.00149 54 ft 1 kts 324°
2026-04-22 19:17 53.62796 10.00128 54 ft 4 kts 310°
2026-04-22 19:17 53.62829 10.00087 54 ft 8 kts 332°
2026-04-22 19:17 53.62853 9.99996 54 ft 9 kts 260°
2026-04-22 19:17 53.62845 9.99960 53 ft 0 kts 242°
2026-04-22 19:19 53.62844 9.99956 53 ft 1 kts 242°
2026-04-22 19:19 53.62837 9.99934 49 ft 3 kts 242°
2026-04-22 19:19 53.62823 9.99889 52 ft 5 kts 242°
2026-04-22 19:20 53.62816 9.99815 51 ft 8 kts 288°
2026-04-22 19:20 53.62855 9.99756 51 ft 4 kts 333°
2026-04-22 19:20 53.62862 9.99750 50 ft 0 kts 332°
2026-04-22 19:22 53.62863 9.99749 50 ft 1 kts 332°
2026-04-22 19:23 53.63086 9.99548 51 ft 79 kts 331°
2026-04-22 19:23 53.63769 9.98965 54 ft 140 kts 333°
2026-04-22 19:23 53.64750 9.98130 323 ft 159 kts 330°
2026-04-22 19:23 53.65702 9.97296 1086 ft 154 kts 328°
2026-04-22 19:24 53.66649 9.96352 1643 ft 168 kts 330°
2026-04-22 19:24 53.67774 9.95440 2276 ft 188 kts 335°
2026-04-22 19:24 53.69056 9.94707 3026 ft 202 kts 350°
2026-04-22 19:24 53.70489 9.94655 3911 ft 208 kts 359°
2026-04-22 19:25 53.71926 9.94691 4750 ft 210 kts
2026-04-22 19:25 53.73349 9.95322 5714 ft 215 kts 27°
2026-04-22 19:25 53.74468 9.97052 6697 ft 222 kts 55°
2026-04-22 19:25 53.74980 9.99532 7620 ft 230 kts 83°
2026-04-22 19:26 53.74740 10.02242 8556 ft 238 kts 106°
2026-04-22 19:26 53.74020 10.04759 9430 ft 249 kts 117°
2026-04-22 19:26 53.73068 10.07428 9903 ft 273 kts 118°
2026-04-22 19:26 53.72058 10.10273 10430 ft 290 kts 117°
2026-04-22 19:27 53.71026 10.13262 10923 ft 309 kts 117°
2026-04-22 19:27 53.69898 10.16513 11307 ft 334 kts 120°
2026-04-22 19:27 53.68329 10.19625 11636 ft 362 kts 137°
2026-04-22 19:27 53.66109 10.21885 11934 ft 387 kts 156°
2026-04-22 19:28 53.63453 10.23196 12265 ft 406 kts 165°
2026-04-22 19:28 53.60672 10.24316 12778 ft 414 kts 165°
2026-04-22 19:28 53.57859 10.25492 13449 ft 417 kts 164°
2026-04-22 19:28 53.55042 10.26731 14125 ft 420 kts 163°
2026-04-22 19:29 53.52209 10.28009 14695 ft 422 kts 163°
2026-04-22 19:29 53.49372 10.29300 15250 ft 425 kts 163°
2026-04-22 19:29 53.46501 10.30611 15812 ft 428 kts 163°
2026-04-22 19:29 53.43611 10.31930 16336 ft 431 kts 163°
2026-04-22 19:30 53.41704 10.32798 16669 ft 433 kts 163°
2026-04-22 19:30 53.37783 10.34566 17285 ft 437 kts 163°
2026-04-22 19:30 53.34843 10.35885 17768 ft 439 kts 163°
2026-04-22 19:30 53.31881 10.37211 18230 ft 442 kts 163°
2026-04-22 19:31 53.28897 10.38549 18676 ft 445 kts 163°
2026-04-22 19:31 53.25906 10.39887 19105 ft 447 kts 163°
2026-04-22 19:31 53.22928 10.41217 19541 ft 449 kts 163°
2026-04-22 19:31 53.19869 10.42583 19983 ft 450 kts 163°
2026-04-22 19:32 53.16830 10.43939 20423 ft 452 kts 163°
2026-04-22 19:32 53.13792 10.45285 20868 ft 454 kts 164°
2026-04-22 19:32 53.10680 10.46390 21352 ft 457 kts 167°
2026-04-22 19:32 53.07591 10.47358 21852 ft 459 kts 168°
2026-04-22 19:33 53.04445 10.48334 22349 ft 461 kts 168°
2026-04-22 19:33 53.01285 10.49317 22834 ft 463 kts 168°
2026-04-22 19:33 52.98073 10.50310 23308 ft 465 kts 168°
2026-04-22 19:33 52.94921 10.51286 23773 ft 467 kts 167°
2026-04-22 19:34 52.91713 10.52280 24198 ft 469 kts 167°
2026-04-22 19:34 52.88502 10.53271 24671 ft 469 kts 167°
2026-04-22 19:34 52.85301 10.54258 25255 ft 466 kts 167°
2026-04-22 19:34 52.82127 10.55237 25871 ft 463 kts 166°
2026-04-22 19:35 52.78974 10.56210 26488 ft 459 kts 166°
2026-04-22 19:35 52.75836 10.57174 27090 ft 457 kts 166°
2026-04-22 19:35 52.73768 10.57807 27470 ft 455 kts 165°
2026-04-22 19:35 52.69623 10.59075 28252 ft 452 kts 165°
2026-04-22 19:36 52.66533 10.60020 28817 ft 450 kts 165°
2026-04-22 19:36 52.63495 10.60947 29380 ft 448 kts 165°
2026-04-22 19:36 52.60402 10.61892 29972 ft 445 kts 164°
2026-04-22 19:36 52.58387 10.62506 30345 ft 443 kts 164°
2026-04-22 19:37 52.54377 10.63727 30945 ft 441 kts 163°
2026-04-22 19:37 52.51354 10.64645 31382 ft 440 kts 163°
2026-04-22 19:37 52.49356 10.65250 31687 ft 439 kts 163°
2026-04-22 19:37 52.45352 10.66473 32288 ft 436 kts 163°
2026-04-22 19:38 52.43334 10.67091 32597 ft 435 kts 162°
2026-04-22 19:38 52.40403 10.67983 33011 ft 434 kts 162°
2026-04-22 19:38 52.37437 10.68881 33426 ft 433 kts 162°
2026-04-22 19:38 52.34483 10.69774 33842 ft 431 kts 162°
2026-04-22 19:39 52.31536 10.70661 34240 ft 430 kts 161°
2026-04-22 19:39 52.28721 10.71498 34560 ft 429 kts 162°
2026-04-22 19:39 52.25773 10.72375 34781 ft 430 kts 162°
2026-04-22 19:39 52.23780 10.72971 34918 ft 432 kts 162°
2026-04-22 19:40 52.19840 10.74151 35174 ft 434 kts 162°
2026-04-22 19:40 52.16883 10.75045 35358 ft 436 kts 162°
2026-04-22 19:40 52.13882 10.75947 35561 ft 437 kts 163°
2026-04-22 19:40 52.10888 10.76833 35742 ft 439 kts 163°
2026-04-22 19:41 52.07831 10.77738 35929 ft 441 kts 163°
2026-04-22 19:41 52.04835 10.78629 36109 ft 442 kts 163°
2026-04-22 19:41 52.01814 10.79526 36296 ft 443 kts 163°
2026-04-22 19:41 51.98769 10.80431 36485 ft 445 kts 164°
2026-04-22 19:42 51.95713 10.81337 36681 ft 446 kts 164°
2026-04-22 19:42 51.92655 10.82241 36861 ft 447 kts 164°
2026-04-22 19:42 51.89598 10.83139 37044 ft 449 kts 165°
2026-04-22 19:42 51.86511 10.84048 37218 ft 450 kts 165°
2026-04-22 19:43 51.80326 10.85870 37404 ft 452 kts 165°
2026-04-22 19:43 51.74158 10.87810 37379 ft 449 kts 160°
2026-04-22 19:44 51.71258 10.89566 37370 ft 442 kts 148°
2026-04-22 19:44 51.68687 10.92189 37368 ft 435 kts 137°
2026-04-22 19:44 51.66541 10.95567 37367 ft 429 kts 126°
2026-04-22 19:44 51.64884 10.99511 37364 ft 423 kts 115°
2026-04-22 19:45 51.62611 11.08193 37362 ft 421 kts 109°
2026-04-22 19:45 51.60439 11.16974 37355 ft 422 kts 109°
2026-04-22 19:46 51.58236 11.25655 37355 ft 421 kts 109°
2026-04-22 19:46 51.56006 11.34373 37355 ft 421 kts 109°
2026-04-22 19:47 51.53769 11.43077 37354 ft 421 kts 109°
2026-04-22 19:47 51.51530 11.51760 37350 ft 421 kts 109°
2026-04-22 19:48 51.49283 11.60438 37350 ft 420 kts 110°
2026-04-22 19:48 51.47037 11.69085 37340 ft 420 kts 110°
2026-04-22 19:49 51.44785 11.77725 37348 ft 420 kts 110°
2026-04-22 19:49 51.42527 11.86352 37350 ft 419 kts 110°
2026-04-22 19:50 51.41253 11.91202 37341 ft 419 kts 110°
2026-04-22 19:50 51.39029 11.99641 37356 ft 419 kts 110°
2026-04-22 19:51 51.36759 12.08225 37344 ft 419 kts 110°
2026-04-22 19:51 51.34495 12.16758 37349 ft 418 kts 110°
2026-04-22 19:52 51.32215 12.25322 37351 ft 418 kts 110°
2026-04-22 19:52 51.29930 12.33873 37352 ft 418 kts 110°
2026-04-22 19:53 51.27639 12.42406 37339 ft 418 kts 110°
2026-04-22 19:53 51.25341 12.50935 37333 ft 418 kts 110°
2026-04-22 19:54 51.23038 12.59458 37331 ft 418 kts 110°
2026-04-22 19:54 51.20729 12.67970 37333 ft 418 kts 110°
2026-04-22 19:55 51.18414 12.76469 37333 ft 418 kts 110°
2026-04-22 19:55 51.16224 12.84484 37333 ft 417 kts 110°
2026-04-22 19:56 51.13607 12.94017 37323 ft 418 kts 110°
2026-04-22 19:56 51.11277 13.02476 37327 ft 418 kts 110°
2026-04-22 19:57 51.08936 13.10947 37322 ft 418 kts 110°
2026-04-22 19:57 51.06587 13.19395 37319 ft 418 kts 110°
2026-04-22 19:58 51.04235 13.27856 37316 ft 418 kts 110°
2026-04-22 19:58 51.02277 13.34875 37312 ft 418 kts 110°
2026-04-22 20:00 50.93982 13.64346 37319 ft 417 kts 110°
2026-04-22 20:01 50.91603 13.72726 37316 ft 417 kts 110°
2026-04-22 20:01 50.89229 13.81065 37312 ft 417 kts 110°
2026-04-22 20:02 50.86832 13.89454 37317 ft 418 kts 111°
2026-04-22 20:02 50.84347 13.97773 37296 ft 420 kts 116°
2026-04-22 20:03 50.80550 14.04924 37302 ft 431 kts 132°
2026-04-22 20:03 50.76085 14.11271 37297 ft 432 kts 133°
2026-04-22 20:04 50.71621 14.17648 37292 ft 432 kts 133°
2026-04-22 20:04 50.67176 14.24012 37290 ft 432 kts 133°
2026-04-22 20:05 50.62724 14.30392 37292 ft 432 kts 132°
2026-04-22 20:05 50.58271 14.36767 37292 ft 433 kts 133°
2026-04-22 20:06 50.53783 14.43188 37285 ft 433 kts 133°
2026-04-22 20:06 50.49336 14.49514 37282 ft 434 kts 133°
2026-04-22 20:07 50.44896 14.55933 37280 ft 433 kts 131°
2026-04-22 20:07 50.40561 14.62516 37282 ft 433 kts 131°
2026-04-22 20:08 50.36201 14.69128 37285 ft 434 kts 131°
2026-04-22 20:08 50.31853 14.75699 37285 ft 434 kts 131°
2026-04-22 20:09 50.27500 14.82256 37284 ft 435 kts 131°
2026-04-22 20:09 50.23143 14.88797 37283 ft 435 kts 131°
2026-04-22 20:10 50.18804 14.95312 37275 ft 435 kts 131°
2026-04-22 20:10 50.14429 15.01856 37277 ft 436 kts 131°
2026-04-22 20:11 50.10049 15.08388 37272 ft 436 kts 131°
2026-04-22 20:11 50.05633 15.14956 37267 ft 436 kts 131°
2026-04-22 20:12 50.01236 15.21481 37263 ft 437 kts 131°
2026-04-22 20:12 49.96862 15.27952 37264 ft 437 kts 131°
2026-04-22 20:13 49.92418 15.34510 37263 ft 438 kts 131°
2026-04-22 20:13 49.88026 15.40972 37261 ft 438 kts 131°
2026-04-22 20:14 49.83595 15.47476 37263 ft 439 kts 131°
2026-04-22 20:14 49.79125 15.54017 37256 ft 439 kts 131°
2026-04-22 20:15 49.78354 15.55145 37253 ft 439 kts 131°
2026-04-22 20:16 49.75924 15.58693 37220 ft 435 kts 131°
2026-04-22 20:16 49.73722 15.61902 36848 ft 434 kts 131°
2026-04-22 20:16 49.71524 15.65103 36561 ft 434 kts 131°
2026-04-22 20:16 49.69315 15.68264 36297 ft 435 kts 134°
2026-04-22 20:17 49.66756 15.70846 35976 ft 443 kts 146°
2026-04-22 20:17 49.63996 15.72943 35505 ft 442 kts 148°
2026-04-22 20:17 49.61218 15.74966 34964 ft 439 kts 147°
2026-04-22 20:17 49.58465 15.76996 34421 ft 436 kts 146°
2026-04-22 20:18 49.55746 15.79035 33788 ft 434 kts 146°
2026-04-22 20:18 49.53041 15.81086 33136 ft 434 kts 146°
2026-04-22 20:18 49.50329 15.83143 32503 ft 436 kts 146°
2026-04-22 20:18 49.47611 15.85201 31874 ft 437 kts 147°
2026-04-22 20:19 49.44873 15.87268 31272 ft 438 kts 147°
2026-04-22 20:19 49.42128 15.89336 30669 ft 439 kts 147°
2026-04-22 20:19 49.39385 15.91403 30042 ft 440 kts 147°
2026-04-22 20:19 49.36665 15.93451 29364 ft 442 kts 147°
2026-04-22 20:20 49.33856 15.95563 28696 ft 445 kts 147°
2026-04-22 20:20 49.31099 15.97635 28051 ft 448 kts 148°
2026-04-22 20:20 49.28291 15.99739 27419 ft 451 kts 148°
2026-04-22 20:20 49.25457 16.01854 26794 ft 454 kts 148°
2026-04-22 20:21 49.22600 16.03979 26185 ft 458 kts 148°
2026-04-22 20:21 49.19730 16.06118 25583 ft 461 kts 148°
2026-04-22 20:21 49.16834 16.08277 24992 ft 464 kts 148°
2026-04-22 20:21 49.13918 16.10444 24438 ft 465 kts 149°
2026-04-22 20:22 49.11037 16.12581 23857 ft 458 kts 149°
2026-04-22 20:22 49.08180 16.14699 23194 ft 455 kts 149°
2026-04-22 20:22 49.05336 16.16808 22529 ft 452 kts 149°
2026-04-22 20:22 49.02509 16.18900 21885 ft 449 kts 149°
2026-04-22 20:23 48.99712 16.20970 21254 ft 447 kts 149°
2026-04-22 20:23 48.96928 16.23027 20629 ft 444 kts 149°
2026-04-22 20:23 48.94157 16.25072 20031 ft 442 kts 149°
2026-04-22 20:23 48.91387 16.27112 19431 ft 440 kts 149°
2026-04-22 20:24 48.88639 16.29134 18829 ft 437 kts 150°
2026-04-22 20:24 48.85903 16.31146 18118 ft 434 kts 150°
2026-04-22 20:24 48.83193 16.33133 17325 ft 430 kts 150°
2026-04-22 20:24 48.80512 16.35096 16593 ft 426 kts 150°
2026-04-22 20:25 48.77845 16.37046 15939 ft 423 kts 150°
2026-04-22 20:25 48.75210 16.38972 15326 ft 420 kts 151°
2026-04-22 20:25 48.72585 16.40890 14729 ft 417 kts 151°
2026-04-22 20:25 48.70021 16.42762 14150 ft 414 kts 151°
2026-04-22 20:26 48.67429 16.44651 13519 ft 410 kts 152°
2026-04-22 20:26 48.64867 16.46515 12890 ft 407 kts 152°
2026-04-22 20:26 48.62326 16.48363 12247 ft 403 kts 152°
2026-04-22 20:26 48.59804 16.50194 11630 ft 400 kts 152°
2026-04-22 20:27 48.57296 16.52014 11070 ft 398 kts 152°
2026-04-22 20:27 48.54811 16.53820 10559 ft 395 kts 152°
2026-04-22 20:27 48.52341 16.55611 10068 ft 393 kts 153°
2026-04-22 20:27 48.49887 16.57386 9561 ft 385 kts 153°
2026-04-22 20:28 48.47502 16.59109 9104 ft 375 kts 153°
2026-04-22 20:28 48.45183 16.60780 8717 ft 364 kts 153°
2026-04-22 20:28 48.42932 16.62403 8360 ft 353 kts 153°
2026-04-22 20:28 48.40743 16.63981 8017 ft 344 kts 153°
2026-04-22 20:29 48.38607 16.65518 7678 ft 336 kts 153°
2026-04-22 20:29 48.36517 16.67020 7334 ft 329 kts 153°
2026-04-22 20:29 48.34502 16.68465 7021 ft 322 kts 153°
2026-04-22 20:29 48.32491 16.69908 6695 ft 316 kts 153°
2026-04-22 20:30 48.30521 16.71321 6354 ft 311 kts 153°
2026-04-22 20:30 48.28584 16.72708 6009 ft 306 kts 153°
2026-04-22 20:30 48.26673 16.74076 5669 ft 302 kts 153°
2026-04-22 20:30 48.24795 16.75419 5355 ft 297 kts 152°
2026-04-22 20:31 48.22956 16.76733 5132 ft 289 kts 152°
2026-04-22 20:31 48.21164 16.78011 4951 ft 280 kts 152°
2026-04-22 20:31 48.19432 16.79246 4771 ft 271 kts 152°
2026-04-22 20:31 48.17759 16.80438 4603 ft 262 kts 152°
2026-04-22 20:32 48.16142 16.81590 4425 ft 253 kts 152°
2026-04-22 20:32 48.14535 16.82619 4235 ft 249 kts 165°
2026-04-22 20:32 48.12846 16.82796 4035 ft 239 kts 187°
2026-04-22 20:32 48.11274 16.82184 3832 ft 229 kts 206°
2026-04-22 20:33 48.09871 16.81118 3517 ft 226 kts 213°
2026-04-22 20:33 48.08559 16.79889 3249 ft 214 kts 218°
2026-04-22 20:33 48.07426 16.78671 3219 ft 190 kts 220°
2026-04-22 20:33 48.06386 16.77516 3103 ft 185 kts 224°
2026-04-22 20:34 48.05691 16.76083 3010 ft 159 kts 262°
2026-04-22 20:34 48.05572 16.74473 2638 ft 160 kts 275°
2026-04-22 20:34 48.05754 16.72892 2508 ft 154 kts 302°
2026-04-22 20:34 48.06289 16.71507 2407 ft 154 kts 306°
2026-04-22 20:35 48.06736 16.70108 2429 ft 138 kts 302°
2026-04-22 20:35 48.07162 16.68926 2290 ft 125 kts 306°
2026-04-22 20:35 48.07558 16.67748 2009 ft 127 kts 303°
2026-04-22 20:35 48.07943 16.66556 1766 ft 128 kts 303°
2026-04-22 20:36 48.08335 16.65356 1654 ft 128 kts 301°
2026-04-22 20:36 48.08733 16.64182 1542 ft 126 kts 302°
2026-04-22 20:36 48.09131 16.63001 1434 ft 128 kts 301°
2026-04-22 20:36 48.09517 16.61809 1292 ft 126 kts 299°
2026-04-22 20:37 48.09903 16.60641 1097 ft 126 kts 298°
2026-04-22 20:37 48.10281 16.59473 917 ft 122 kts 298°
2026-04-22 20:37 48.10654 16.58316 761 ft 124 kts 298°
2026-04-22 20:37 48.11035 16.57165 629 ft 117 kts 297°
2026-04-22 20:38 48.11329 16.56262 625 ft 68 kts 296°
2026-04-22 20:38 48.11493 16.55762 619 ft 50 kts 296°
2026-04-22 20:38 48.11620 16.55408 614 ft 36 kts 310°
2026-04-22 20:38 48.11765 16.55195 617 ft 19 kts 317°
2026-04-22 20:39 48.11830 16.55143 615 ft 10 kts 346°
2026-04-22 20:39 48.11886 16.55174 619 ft 8 kts 77°
2026-04-22 20:39 48.11863 16.55266 621 ft 11 kts 115°
2026-04-22 20:39 48.11833 16.55378 621 ft 11 kts 91°
2026-04-22 20:40 48.11865 16.55431 618 ft 9 kts 12°
2026-04-22 20:40 48.11905 16.55452 624 ft 7 kts 50°
2026-04-22 20:40 48.11931 16.55519 616 ft 7 kts 64°
2026-04-22 20:40 48.11946 16.55565 618 ft 3 kts 63°
2026-04-22 20:41 48.11953 16.55586 622 ft 0 kts 64°